This is the latest recevied weather packets stored in our database for station/object W8LMG. If no packets are shown the sender has not sent any weather packets the latest 10 day(s).
| Time | Temp. | Humidity | Pressure | Rain* | Wind** | Luminosity | Snow |
|---|---|---|---|---|---|---|---|
| 1777753189 | 9.44° C | 45% | 1014 hPa | 0 mm | - | 154 W/m² | - |
| 1777752884 | 9.44° C | 49% | 1013.9 hPa | 0 mm | - | 165 W/m² | - |
| 1777752581 | 9.44° C | 45% | 1014 hPa | 0 mm | - | 256 W/m² | - |
| 1777752277 | 9.44° C | 46% | 1013.9 hPa | 0 mm | - | 154 W/m² | - |
| 1777751975 | 9.44° C | 47% | 1014.1 hPa | 0 mm | - | 116 W/m² | - |
| 1777751672 | 10° C | 45% | 1014.1 hPa | 0 mm | - | 125 W/m² | - |
| 1777751368 | 9.44° C | 46% | 1014 hPa | 0 mm | - | 201 W/m² | - |
| 1777751065 | 9.44° C | 44% | 1014.1 hPa | 0 mm | - | 146 W/m² | - |
| 1777750761 | 9.44° C | 44% | 1014.1 hPa | 0 mm | - | 152 W/m² | - |
| 1777750458 | 10° C | 51% | 1014.3 hPa | 0 mm | - | 226 W/m² | - |
| 1777750154 | 9.44° C | 49% | 1014.3 hPa | 0 mm | - | 142 W/m² | - |
| 1777749851 | 10° C | 45% | 1014.3 hPa | 0 mm | - | 100 W/m² | - |
| 1777749548 | 10° C | 44% | 1014.2 hPa | 0 mm | - | 113 W/m² | - |
| 1777749246 | 10.56° C | 44% | 1014.4 hPa | 0 mm | - | 182 W/m² | - |
| 1777748943 | 10.56° C | 45% | 1014.5 hPa | 0 mm | - | 336 W/m² | - |
| 1777748640 | 10° C | 47% | 1014.3 hPa | 0 mm | - | 356 W/m² | - |
| 1777748336 | 9.44° C | 49% | 1014.6 hPa | 0 mm | - | 290 W/m² | - |
| 1777748031 | 9.44° C | 47% | 1014.4 hPa | 0 mm | - | 180 W/m² | - |
| 1777747729 | 9.44° C | 45% | 1014.5 hPa | 0 mm | - | 205 W/m² | - |
| 1777747424 | 10.56° C | 46% | 1014.4 hPa | 0 mm | - | 174 W/m² | - |
| 1777747121 | 10.56° C | 44% | 1014.4 hPa | 0 mm | - | 755 W/m² | - |
| 1777746817 | 10.56° C | 43% | 1014.4 hPa | 0 mm | - | 785 W/m² | - |
| 1777746512 | 10.56° C | 44% | 1014.3 hPa | 0 mm | - | 875 W/m² | - |
| 1777746208 | 10° C | 49% | 1014.3 hPa | 0 mm | - | 327 W/m² | - |
| 1777745905 | 10° C | 43% | 1014.4 hPa | 0 mm | - | 227 W/m² | - |
* Rain latest hour (hover to see other rain measurements)
** Current wind speed in m/s (hover to see current wind gust speed)